CZ-6A DEB, 56587

Orbit data source: Space-Track

CZ-6A DEB, 56587 is space debris in SSO originally from a launch on Fri, 11 Nov 2022 UTC launched from the Taiyaun Space Center, China (TSC). Debris objects in space refer to the collection of defunct objects orbiting the Earth. Examples of debris include non-operational satellites, rocket bodies, and fragments generated from explosions, collisions, or faulty payload assembly.

Loading next visibility...
Identifier
56587, 2022-151ADK
Orbit
SSO
Country
Flag of CNCN / PRC
Related business
Manufacturer
SAST
Mission
Spacecraft
Bus & Motor
Unknown
Mass
Unknown
Launch date (UTC)
2022-11-11 (4 years ago)
Launch vehicle
Unknown
Launch site
Taiyaun Space Center, China (TSC)
Object type
Payload
Rocket body
Debris
Shape & HBR
Unknown shape, 0.1 m
Radar Cross Section
Medium (>0.1 m² and <1 m²)

Expand to show TLE details & history
Last TLE update: 3 days ago

TLE from 3 days ago
0 CZ-6A DEB
1 56587U 22151ADK 26170.36694466  .00001142  00000-0  83344-3 0  9995
2 56587  98.9360 133.9568 0168068 125.3672 236.3324 13.91495153159872
Epoch: 2026-06-19T08:48Z
TLE epoch observation values (Epoch: 2026-06-19T08:48:24.018Z)
Latitude
-0.00003°
Longitude
94.25979°
Altitude
995.718 km
Speed
7.319 km/s
True Right ascension
08h 55m 49s
True Declination
0° 00' 00"
Sunlit
Object was in daylight at epoch
Visualization orbit readout
Latitude
Unknown
Longitude
Unknown
Altitude
Unknown
Speed
Unknown
Apparent Right ascension
Unknown
Apparent Declination
Unknown
Sunlit
N/A
Visualization observer readout
Local Sidereal Time
21:24:40
Azimuth
Unknown
Elevation
Unknown
Doppler factor
Unknown
Orbital elements
Apogee altitude
1,043.271 km
Perigee altitude
797.934 km
Semi-major axis
7,298.739 km
Eccentricity
0.01681
Inclination
98.936°
RAAN
133.9568°
Arg. of periapsis
125.3672°
True anomaly
234.74818°
Mean anomaly
236.3324°
Eccentric anomaly
235.53843°
Mean motion
3.48074 °/min
Orbital period
103.43 mins
BSTAR
0.00083344
Loading maneuver chart data...
Computing Atmospheric mass density...
Loading historical data...
Loading historical data...
Loading historical data...
Loading historical data...
Loading historical data...
Loading historical data...
Loading historical data...

Documentation

Showing up to 5 results
|